Weather History for KLBB - July, 2012

Change the Weather History Date:

Thursday, July 19, 2012

  Actual Average Record
Temperature  
Mean Temperature 83 °F 80 °F  
Max Temperature 94 °F 93 °F 108 °F (1936)
Min Temperature 72 °F 68 °F 55 °F (1947)
Degree Days  
Heating Degree Days 0 0  
Month to date heating degree days 0 0  
Since 1 June heating degree days 0 2  
Since 1 July heating degree days 0 0  
Cooling Degree Days 18 15  
Month to date cooling degree days 313 285  
Year to date cooling degree days 1260 905  
Since 1 June cooling degree days 784 659  
Growing Degree Days 32 (Base 50)    
Moisture  
Dew Point 56 °F    
Average Humidity 44    
Maximum Humidity 64    
Minimum Humidity 24    
Precipitation  
Precipitation 0.00 in 0.06 in 1.16 in (1955)
Month to date precipitation 0.06 1.26  
Year to date precipitation 5.31 10.51  
Snow  
Snow 0.00 in 0.00 in 0.00 in (2002)
Month to date snowfall 0.0 0.0  
Since 1 June snowfall 0.0 0.0  
Since 1 July snowfall 0.0 0.0  
Snow Depth 0.00 in    
Sea Level Pressure  
Sea Level Pressure 29.99 in    
Wind  
Wind Speed 9 mph (South)    
Max Wind Speed 18 mph    
Max Gust Speed 24 mph    
Visibility 10 miles    
Events      
T = Trace of Precipitation, MM = Missing Value Source: NWS Daily Summary

Daily Weather History Graph

Daily Weather History Graph

Search for Another Location

Airport or City:

Trip Planner

Search our weather history database for the weather conditions in past years. The results will help you decide how hot, cold, wet, or windy it might be!

Date:

Astronomy

Jul. 19, 2012 Rise Set
Actual Time 6:50 AM CDT 8:56 PM CDT
Civil Twilight 6:22 AM CDT 9:24 PM CDT
Nautical Twilight 5:48 AM CDT 9:58 PM CDT
Astronomical Twilight 5:11 AM CDT 10:34 PM CDT
Moon 7:23 AM CDT (7/19) 9:09 PM CDT (7/19)
Length of Visible Light 15h 01m
Length of Day
14h 05m
New Moon, 0% of the Moon is Illuminated
Jul 19
New Moon
Jul 26
First Quarter
Aug 1
Full
Aug 9
Last Quarter
Aug 17
New

Hourly Weather History & Observations

Time (CDT) Temp. Heat Index Dew Point Humidity Pressure Visibility Wind Dir Wind Speed Gust Speed Precip Events Conditions
12:53 AM 82.0 °F 81.3 °F 54.0 °F 38% 29.93 in 10.0 mi South 11.5 mph - N/A   Mostly Cloudy
1:53 AM 79.0 °F - 55.0 °F 44% 29.95 in 10.0 mi South 11.5 mph - N/A   Scattered Clouds
2:53 AM 78.1 °F - 55.9 °F 46% 29.96 in 10.0 mi SSW 13.8 mph - N/A   Partly Cloudy
3:53 AM 77.0 °F - 57.9 °F 52% 29.96 in 10.0 mi SSW 15.0 mph - N/A   Partly Cloudy
4:53 AM 75.0 °F - 59.0 °F 57% 29.97 in 10.0 mi SSW 11.5 mph - N/A   Clear
5:53 AM 73.9 °F - 59.0 °F 59% 29.98 in 10.0 mi SW 8.1 mph - N/A   Clear
6:53 AM 73.4 °F - 60.8 °F 65% 30.16 in 10.0 mi SW 9.2 mph - N/A   Partly Cloudy
7:53 AM 73.0 °F - 61.0 °F 66% 30.01 in 10.0 mi SW 11.5 mph - N/A   Partly Cloudy
8:53 AM 75.9 °F - 61.0 °F 60% 30.03 in 10.0 mi WSW 10.4 mph - N/A   Partly Cloudy
9:53 AM 80.1 °F 81.2 °F 62.1 °F 54% 30.04 in 10.0 mi WSW 9.2 mph - N/A   Partly Cloudy
10:53 AM 82.0 °F 82.4 °F 60.1 °F 47% 30.04 in 10.0 mi SSW 8.1 mph - N/A   Partly Cloudy
11:53 AM 84.0 °F 83.3 °F 57.0 °F 40% 30.05 in 10.0 mi Variable 6.9 mph - N/A   Partly Cloudy
12:53 PM 86.0 °F 84.9 °F 57.0 °F 37% 30.04 in 10.0 mi South 6.9 mph - N/A   Scattered Clouds
1:53 PM 90.0 °F 87.7 °F 54.0 °F 29% 30.02 in 10.0 mi SW 5.8 mph - N/A   Scattered Clouds
2:53 PM 91.0 °F 88.7 °F 54.0 °F 28% 30.00 in 10.0 mi Variable 5.8 mph - N/A   Scattered Clouds
3:53 PM 93.0 °F - 52.0 °F 25% 29.99 in 10.0 mi SSW 15.0 mph - N/A   Partly Cloudy
4:53 PM 91.0 °F 88.7 °F 54.0 °F 28% 29.97 in 10.0 mi SSE 5.8 mph - N/A   Partly Cloudy
5:53 PM 91.9 °F 90.0 °F 55.0 °F 29% 29.96 in 10.0 mi SSE 10.4 mph - N/A   Partly Cloudy
6:53 PM 91.9 °F - 52.0 °F 26% 29.94 in 10.0 mi SSE 11.5 mph - N/A   Partly Cloudy
7:53 PM 90.0 °F 87.7 °F 54.0 °F 29% 29.94 in 10.0 mi South 12.7 mph - N/A   Partly Cloudy
8:53 PM 87.1 °F 85.1 °F 54.0 °F 32% 29.95 in 10.0 mi South 8.1 mph - N/A   Partly Cloudy
9:53 PM 82.9 °F 82.0 °F 55.0 °F 38% 29.97 in 10.0 mi ESE 3.5 mph - N/A   Clear
10:53 PM 79.0 °F - 54.0 °F 42% 30.00 in 10.0 mi East 3.5 mph - N/A   Partly Cloudy
11:53 PM 77.0 °F - 55.0 °F 47% 30.01 in 10.0 mi East 3.5 mph - N/A   Scattered Clouds